Terminal Aerodrome Forecast
Issued by NWS Cleveland, OH

Home | Current Version | Previous Version | Graphics & Text | Print | Product List | Glossary On
Versions: 1 2 3 4 5 6 7 8 9 10 11 12 13 14 15 16 17 18 19 20 21 22
000
FTUS41 KCLE 261851 AAA
TAFMFD
TAF AMD
KMFD 261851Z 2619/2718 16014G22KT P6SM BKN045
     FM262300 18015G25KT 6SM -SHRA VCTS BKN040CB OVC080
     FM270200 19015G22KT P6SM VCSH BKN040 OVC100
     FM270800 20012KT 5SM BR BKN008
     FM271300 21013KT P6SM SCT015 BKN035=

USA.gov is the U.S. government's official web portal to all federal, state and local government web resources and services.